Flag for U.S.A. Weather past 2 weeks in Kennebunk, Maine, U.S.A.

Now
86 °F

Passing clouds.


Feels Like: 91 °F
Forecast: 65 / 84 °F
Wind: 8 mph from Southwest

Location: Sanford Municipal

Current Time: Jul 30, 2015 at 4:29:46 PM

Latest Report: Jul 30, 2015 at 3:55 PM


Visibility: 10 mi

Pressure: 29.75 "Hg

Humidity: 59%

Dew point: 70 °F

Location of KennebunkLocation

Historic Weather in Kennebunk — Graph

°F

Kennebunk temperature yesterday

Maximum temperature yesterday: 93 °F (at 2:55 PM)
Minimum temperature yesterday: 59 °F (at 4:35 AM)
Average temperature yesterday: 77 °F

Past Weeks' High & Low Weather Summary

 TemperatureHumidityPressure
High93 °F (Jul 29, 2:55 PM)94% (Jul 20, 1:15 AM)30.14 "Hg (Jul 20, 1:15 AM)
Low45 °F (Jul 16, 5:35 AM)33% (Jul 16, 1:55 PM)29.56 "Hg (Jul 21, 6:55 PM)
Average68 °F71%29.89 "Hg
* Reported Jul 15 3:15 PM — Jul 30 3:15 PM, Kennebunk, Weather by CustomWeather, © 2015

Note: Actual official high and low records may vary slightly from our data, if they occured in-between our weather recording intervals... More about our weather records

Advertising

Kennebunk weather history for previous 24 hours

 ConditionsComfort  
Time TempWeatherWind HumidityBarometerVisibility
3:15 PM
Thu, Jul 30
88 °FBroken clouds.7 mph55%29.76 "Hg10 mi
2:55 PM90 °FScattered clouds.3 mph49%29.77 "Hg10 mi
2:35 PM91 °FPassing clouds.9 mph44%29.77 "Hg10 mi
2:15 PM90 °FPassing clouds.10 mph46%29.79 "Hg10 mi
1:55 PM90 °FPassing clouds.8 mph46%29.79 "Hg10 mi
1:35 PM90 °FSunny.6 mph46%29.80 "Hg10 mi
1:15 PM91 °FSunny.14 mph44%29.80 "Hg10 mi
12:55 PM90 °FSunny.7 mph52%29.81 "Hg10 mi
12:35 PM88 °FSunny.7 mph52%29.82 "Hg10 mi
12:15 PM90 °FSunny.7 mph52%29.82 "Hg10 mi
11:55 AM88 °FSunny.6 mph55%29.83 "Hg7 mi
11:35 AM90 °FSunny.7 mph49%29.83 "Hg10 mi
11:15 AM90 °FSunny.8 mph49%29.84 "Hg10 mi
10:55 AM86 °FSunny.6 mph55%29.84 "Hg7 mi
10:35 AM88 °FSunny.5 mph52%29.84 "Hg10 mi
10:15 AM86 °FSunny.6 mph55%29.84 "Hg10 mi
9:55 AM84 °FSunny.5 mph58%29.84 "Hg10 mi
9:35 AM84 °FSunny.No wind55%29.85 "Hg10 mi
9:15 AM82 °FSunny.5 mph58%29.86 "Hg10 mi
8:55 AM81 °FSunny.5 mph62%29.86 "Hg10 mi
8:35 AM81 °FSunny.5 mph66%29.87 "Hg9 mi
8:15 AM75 °FSunny.No wind74%29.87 "Hg10 mi
7:55 AM73 °FSunny.No wind78%29.87 "Hg10 mi
7:35 AM73 °FSunny.No wind74%29.87 "Hg10 mi
7:15 AM72 °FSunny.No wind78%29.87 "Hg10 mi
6:55 AM70 °FSunny.No wind78%29.87 "Hg6 mi
6:35 AM64 °FSunny.No wind88%29.87 "Hg7 mi
6:15 AM63 °FClear.No wind88%29.87 "Hg5 mi
5:55 AM61 °FClear.No wind88%29.87 "Hg4 mi
5:35 AM63 °FClear.No wind83%29.87 "Hg5 mi
5:15 AM63 °FClear.No wind88%29.87 "Hg5 mi
4:55 AM63 °FClear.No wind88%29.87 "Hg7 mi
4:35 AM63 °FClear.No wind88%29.87 "Hg6 mi
4:15 AM63 °FClear.No wind88%29.87 "Hg9 mi
3:55 AM64 °FClear.No wind83%29.87 "Hg4 mi
3:35 AM64 °FClear.No wind88%29.87 "Hg4 mi
3:15 AM64 °FClear.No wind88%29.88 "Hg5 mi
2:55 AM64 °FClear.No wind88%29.88 "Hg5 mi
2:35 AM66 °FClear.No wind83%29.87 "Hg5 mi
2:15 AM66 °FClear.No wind83%29.88 "Hg7 mi
1:55 AM66 °FClear.No wind88%29.88 "Hg5 mi
1:35 AM66 °FClear.No wind88%29.87 "Hg8 mi
1:15 AM66 °FClear.No wind88%29.88 "Hg7 mi
12:55 AM66 °FClear.No wind88%29.88 "Hg8 mi
12:35 AM68 °FClear.No wind83%29.88 "Hg6 mi
11:35 PM
Wed, Jul 29
70 °FClear.3 mph83%29.88 "Hg7 mi
11:15 PM70 °FClear.3 mph83%29.88 "Hg6 mi
10:55 PM70 °FClear.No wind83%29.88 "Hg8 mi
10:35 PM70 °FClear.3 mph83%29.88 "Hg8 mi
10:15 PM72 °FClear.No wind83%29.89 "Hg10 mi
9:55 PM72 °FClear.No wind83%29.89 "Hg10 mi
9:35 PM73 °FClear.No wind78%29.89 "Hg10 mi
9:15 PM73 °FClear.No wind78%29.89 "Hg10 mi
8:55 PM77 °FSunny.No wind69%29.88 "Hg10 mi
8:35 PM79 °FPartly sunny.No wind65%29.87 "Hg10 mi
8:15 PM81 °FOvercast.5 mph62%29.88 "Hg10 mi
7:55 PM82 °FOvercast.3 mph66%29.87 "Hg10 mi
7:35 PM82 °FPartly sunny.No wind66%29.88 "Hg10 mi
7:15 PM82 °FScattered clouds.3 mph66%29.87 "Hg10 mi
6:55 PM84 °FPassing clouds.5 mph62%29.87 "Hg10 mi
6:35 PM86 °FScattered clouds.3 mph59%29.87 "Hg10 mi
5:55 PM88 °FSunny.5 mph52%29.87 "Hg10 mi
5:35 PM90 °FSunny.5 mph49%29.88 "Hg10 mi
5:15 PM88 °FSunny.No wind52%29.88 "Hg9 mi
4:55 PM86 °FSunny.3 mph55%29.89 "Hg10 mi
4:35 PM86 °FSunny.3 mph55%29.89 "Hg10 mi
4:15 PM86 °FSunny.5 mph59%29.89 "Hg10 mi
Weather by CustomWeather, © 2015

See weather overviewHow to use our weather pages